N782RH EGKB-EICK

Flight info

Callsign N782RH
Flight time 1h 12m
Altitude 25000
Route DET M604 LYD/N0458F360 M189 WAFFU Y8 SAM N19 ADKIK DCT FONZU DCT CANZI/N0416F240 L38 SAMON DCT ERTER ERTER1R
Aircraft B738/M-SDE2E3FGHIRWXY/LB1

Departure

Time 2026-05-07 14:50
Airport London Biggin Hill Airport (EGKB)

Arrival

Time 2026-05-07 16:02
Airport Cork International Airport (EICK)
Time Latitude Longitude Altitude Speed Heading
2026-05-07 14:26 51.33328 0.03085 558 ft 0 kts 204°
2026-05-07 14:39 51.33325 0.03083 559 ft 0 kts 204°
2026-05-07 14:40 51.33324 0.03082 559 ft 0 kts 204°
2026-05-07 14:40 51.33325 0.03083 559 ft 0 kts 204°
2026-05-07 14:41 51.33324 0.03082 559 ft 0 kts 204°
2026-05-07 14:45 51.33310 0.03078 568 ft 6 kts 175°
2026-05-07 14:45 51.33247 0.03087 566 ft 12 kts 196°
2026-05-07 14:45 51.33163 0.03026 571 ft 13 kts 205°
2026-05-07 14:46 51.33082 0.02965 571 ft 13 kts 206°
2026-05-07 14:46 51.33004 0.02904 575 ft 12 kts 206°
2026-05-07 14:46 51.32952 0.02866 575 ft 12 kts 201°
2026-05-07 14:46 51.32846 0.02798 575 ft 12 kts 206°
2026-05-07 14:47 51.32768 0.02727 574 ft 13 kts 207°
2026-05-07 14:47 51.32715 0.02687 539 ft 13 kts 205°
2026-05-07 14:47 51.32637 0.02628 540 ft 12 kts 205°
2026-05-07 14:47 51.32561 0.02568 544 ft 12 kts 206°
2026-05-07 14:48 51.32482 0.02550 547 ft 12 kts 167°
2026-05-07 14:48 51.32420 0.02627 549 ft 12 kts 114°
2026-05-07 14:48 51.32428 0.02728 550 ft 10 kts 31°
2026-05-07 14:48 51.32442 0.02739 550 ft 1 kts 25°
2026-05-07 14:49 51.32444 0.02740 550 ft 2 kts 25°
2026-05-07 14:49 51.32646 0.02896 542 ft 75 kts 26°
2026-05-07 14:49 51.33356 0.03449 579 ft 149 kts 29°
2026-05-07 14:49 51.34389 0.04265 1126 ft 173 kts 29°
2026-05-07 14:50 51.35460 0.05127 2124 ft 178 kts 26°
2026-05-07 14:50 51.36503 0.06364 2808 ft 201 kts 53°
2026-05-07 14:50 51.37079 0.08413 3076 ft 230 kts 84°
2026-05-07 14:50 51.36909 0.10885 3470 ft 249 kts 103°
2026-05-07 14:51 51.36504 0.13658 4100 ft 263 kts 104°
2026-05-07 14:51 51.36078 0.16520 5177 ft 265 kts 104°
2026-05-07 14:51 51.35661 0.19416 6182 ft 268 kts 104°
2026-05-07 14:51 51.35012 0.22105 7072 ft 271 kts 128°
2026-05-07 14:52 51.33517 0.23891 8008 ft 272 kts 161°
2026-05-07 14:52 51.31691 0.24730 8831 ft 274 kts 165°
2026-05-07 14:52 51.29844 0.25577 9810 ft 277 kts 165°
2026-05-07 14:52 51.27959 0.26453 10432 ft 292 kts 165°
2026-05-07 14:53 51.25917 0.27416 10629 ft 320 kts 164°
2026-05-07 14:53 51.23693 0.28480 10855 ft 344 kts 164°
2026-05-07 14:53 51.21361 0.29609 11435 ft 355 kts 163°
2026-05-07 14:53 51.18974 0.30692 12267 ft 358 kts 170°
2026-05-07 14:54 51.16484 0.30737 13116 ft 362 kts 190°
2026-05-07 14:54 51.14140 0.29416 13965 ft 367 kts 209°
2026-05-07 14:54 51.12154 0.26834 14817 ft 371 kts 228°
2026-05-07 14:54 51.10786 0.23345 15683 ft 374 kts 245°
2026-05-07 14:55 51.09781 0.19513 16555 ft 378 kts 248°
2026-05-07 14:55 51.08821 0.15606 17381 ft 382 kts 248°
2026-05-07 14:55 51.07861 0.11640 18197 ft 385 kts 249°
2026-05-07 14:55 51.06889 0.07653 18913 ft 389 kts 248°
2026-05-07 14:56 51.05900 0.03646 19637 ft 392 kts 248°
2026-05-07 14:56 51.04887 -0.00410 20402 ft 395 kts 248°
2026-05-07 14:56 51.03862 -0.04478 21090 ft 398 kts 248°
2026-05-07 14:56 51.02822 -0.08586 21762 ft 401 kts 248°
2026-05-07 14:57 51.01774 -0.12705 22374 ft 405 kts 248°
2026-05-07 14:57 51.00722 -0.16828 22987 ft 408 kts 248°
2026-05-07 14:57 50.99653 -0.21009 23583 ft 412 kts 248°
2026-05-07 14:57 50.98569 -0.25246 24100 ft 415 kts 248°
2026-05-07 14:58 50.97479 -0.29495 24610 ft 417 kts 248°
2026-05-07 14:58 50.96382 -0.33764 25120 ft 419 kts 248°
2026-05-07 14:58 50.95271 -0.38079 25605 ft 422 kts 248°
2026-05-07 14:58 50.94156 -0.42402 26065 ft 424 kts 248°
2026-05-07 14:59 50.93052 -0.46678 26516 ft 427 kts 248°
2026-05-07 14:59 50.91919 -0.51055 26959 ft 429 kts 248°
2026-05-07 14:59 50.90781 -0.55442 27388 ft 432 kts 248°
2026-05-07 14:59 50.89631 -0.59871 27803 ft 434 kts 248°
2026-05-07 15:00 50.88476 -0.64309 28214 ft 437 kts 248°
2026-05-07 15:00 50.87319 -0.68766 28608 ft 439 kts 249°
2026-05-07 15:00 50.86502 -0.73446 28952 ft 442 kts 261°
2026-05-07 15:00 50.86316 -0.78310 29349 ft 445 kts 270°
2026-05-07 15:01 50.86665 -0.83177 29819 ft 446 kts 282°
2026-05-07 15:01 50.87463 -0.87875 30388 ft 444 kts 284°
2026-05-07 15:01 50.88311 -0.92557 30869 ft 442 kts 284°
2026-05-07 15:01 50.89158 -0.97245 31270 ft 442 kts 284°
2026-05-07 15:02 50.89987 -1.01936 31676 ft 442 kts 283°
2026-05-07 15:02 50.90799 -1.06628 32114 ft 440 kts 283°
2026-05-07 15:02 50.91578 -1.11195 32550 ft 439 kts 283°
2026-05-07 15:02 50.92367 -1.15859 32961 ft 439 kts 283°
2026-05-07 15:03 50.93158 -1.20549 33367 ft 438 kts 283°
2026-05-07 15:03 50.93934 -1.25154 33780 ft 437 kts 283°
2026-05-07 15:03 50.94678 -1.29829 34172 ft 435 kts 278°
2026-05-07 15:03 50.95003 -1.34589 34443 ft 434 kts 270°
2026-05-07 15:04 50.94905 -1.39375 34688 ft 435 kts 262°
2026-05-07 15:04 50.94378 -1.44090 34959 ft 435 kts 257°
2026-05-07 15:04 50.93753 -1.48792 35253 ft 435 kts 257°
2026-05-07 15:04 50.93118 -1.53488 35500 ft 437 kts 257°
2026-05-07 15:05 50.92486 -1.58213 35753 ft 438 kts 257°
2026-05-07 15:05 50.91863 -1.62937 36044 ft 438 kts 257°
2026-05-07 15:05 50.90621 -1.72484 36049 ft 443 kts 257°
2026-05-07 15:06 50.89389 -1.81963 36032 ft 438 kts 257°
2026-05-07 15:06 50.88156 -1.91393 36047 ft 436 kts 257°
2026-05-07 15:07 50.86916 -2.00793 36041 ft 436 kts 257°
2026-05-07 15:07 50.85670 -2.10200 36034 ft 436 kts 257°
2026-05-07 15:08 50.84422 -2.19592 36032 ft 436 kts 257°
2026-05-07 15:08 50.83174 -2.28926 36019 ft 436 kts 257°
2026-05-07 15:09 50.81910 -2.38321 36027 ft 436 kts 256°
2026-05-07 15:09 50.80637 -2.47725 36021 ft 437 kts 256°
2026-05-07 15:10 50.79690 -2.57229 36014 ft 440 kts 268°
2026-05-07 15:10 50.79913 -2.66914 36025 ft 442 kts 271°
2026-05-07 15:11 50.80200 -2.76645 36017 ft 442 kts 270°
2026-05-07 15:11 50.80446 -2.86364 36028 ft 443 kts 270°
2026-05-07 15:12 50.80662 -2.96049 36018 ft 443 kts 270°
2026-05-07 15:12 50.80866 -3.05798 36036 ft 443 kts 270°
2026-05-07 15:13 50.81061 -3.15506 36035 ft 443 kts 270°
2026-05-07 15:13 50.81250 -3.25242 36043 ft 443 kts 270°
2026-05-07 15:14 50.81430 -3.34981 36045 ft 443 kts 270°
2026-05-07 15:14 50.81602 -3.44695 36051 ft 443 kts 270°
2026-05-07 15:15 50.81766 -3.54399 36042 ft 444 kts 269°
2026-05-07 15:15 50.81923 -3.64140 36039 ft 443 kts 269°
2026-05-07 15:16 50.82071 -3.73894 36029 ft 444 kts 269°
2026-05-07 15:16 50.82214 -3.83650 36012 ft 444 kts 269°
2026-05-07 15:17 50.82456 -3.93351 36007 ft 445 kts 273°
2026-05-07 15:17 50.83147 -4.02490 36008 ft 445 kts 275°
2026-05-07 15:18 50.83959 -4.12056 36008 ft 445 kts 275°
2026-05-07 15:18 50.84743 -4.21780 36011 ft 445 kts 275°
2026-05-07 15:19 50.85412 -4.30513 36009 ft 445 kts 275°
2026-05-07 15:19 50.85938 -4.37606 36008 ft 445 kts 274°
2026-05-07 15:20 50.86396 -4.43790 36010 ft 445 kts 275°
2026-05-07 15:20 50.86903 -4.49763 36014 ft 445 kts 274°
2026-05-07 15:21 50.87313 -4.55649 36016 ft 444 kts 273°
2026-05-07 15:21 50.87723 -4.61332 35981 ft 444 kts 273°
2026-05-07 15:22 50.88090 -4.67556 36004 ft 444 kts 274°
2026-05-07 15:22 50.88463 -4.72637 36011 ft 444 kts 275°
2026-05-07 15:23 50.88881 -4.78051 35942 ft 445 kts 274°
2026-05-07 15:23 50.89430 -4.83845 35771 ft 450 kts 298°
2026-05-07 15:24 50.90448 -4.86046 35508 ft 461 kts 310°
2026-05-07 15:24 50.91838 -4.87932 35808 ft 458 kts 331°
2026-05-07 15:24 50.93208 -4.88789 35944 ft 456 kts 345°
2026-05-07 15:24 50.95577 -4.88479 34490 ft 470 kts 37°
2026-05-07 15:25 50.98304 -4.84974 32329 ft 516 kts 26°
2026-05-07 15:25 51.01624 -4.83790 32627 ft 477 kts 356°
2026-05-07 15:25 51.04760 -4.84912 32861 ft 455 kts 332°
2026-05-07 15:25 51.07066 -4.87366 33100 ft 445 kts 313°
2026-05-07 15:26 51.08245 -4.89549 33252 ft 439 kts 300°
2026-05-07 15:26 51.09048 -4.91906 33386 ft 435 kts 288°
2026-05-07 15:26 51.09484 -4.94187 33500 ft 431 kts 277°
2026-05-07 15:26 51.09626 -4.96944 33630 ft 427 kts 264°
2026-05-07 15:27 51.09445 -4.99174 33772 ft 423 kts 254°
2026-05-07 15:27 51.09054 -5.01420 34106 ft 414 kts 250°
2026-05-07 15:27 51.08179 -5.03994 34250 ft 410 kts 223°
2026-05-07 15:27 51.07016 -5.05554 34336 ft 409 kts 218°
2026-05-07 15:28 51.05024 -5.08675 34980 ft 399 kts 232°
2026-05-07 15:28 51.03824 -5.11836 35617 ft 391 kts 244°
2026-05-07 15:28 51.03288 -5.13857 35980 ft 386 kts 248°
2026-05-07 15:28 51.02723 -5.16482 36386 ft 375 kts 252°
2026-05-07 15:29 51.02319 -5.20430 36931 ft 370 kts 268°
2026-05-07 15:29 51.02361 -5.24481 37478 ft 364 kts 269°
2026-05-07 15:29 51.02387 -5.26640 37746 ft 362 kts 269°
2026-05-07 15:29 51.02403 -5.28942 37967 ft 354 kts 268°
2026-05-07 15:30 51.02418 -5.36104 37627 ft 369 kts 269°
2026-05-07 15:30 51.02457 -5.40003 37418 ft 383 kts 269°
2026-05-07 15:30 51.02500 -5.44287 37181 ft 397 kts 269°
2026-05-07 15:31 51.02527 -5.47348 37016 ft 407 kts 269°
2026-05-07 15:31 51.02558 -5.51768 36789 ft 419 kts 268°
2026-05-07 15:31 51.02583 -5.56011 36574 ft 431 kts 268°
2026-05-07 15:31 51.02606 -5.60833 36334 ft 442 kts 268°
2026-05-07 15:32 51.02626 -5.65707 36075 ft 444 kts 268°
2026-05-07 15:32 51.02643 -5.70619 35681 ft 446 kts 268°
2026-05-07 15:32 51.02656 -5.75317 35219 ft 449 kts 268°
2026-05-07 15:32 51.02666 -5.79979 35052 ft 446 kts 268°
2026-05-07 15:33 51.02675 -5.86640 35006 ft 444 kts 267°
2026-05-07 15:33 51.02677 -5.95900 35001 ft 445 kts 268°
2026-05-07 15:34 51.02682 -6.05751 35005 ft 447 kts 267°
2026-05-07 15:34 51.02678 -6.15610 35012 ft 446 kts 267°
2026-05-07 15:35 51.02663 -6.25207 35002 ft 446 kts 267°
2026-05-07 15:35 51.02639 -6.35063 35003 ft 447 kts 267°
2026-05-07 15:36 51.02608 -6.44763 35003 ft 447 kts 267°
2026-05-07 15:36 51.02588 -6.49706 34889 ft 449 kts 267°
2026-05-07 15:36 51.02566 -6.54683 34523 ft 449 kts 267°
2026-05-07 15:37 51.02544 -6.59507 34303 ft 445 kts 266°
2026-05-07 15:37 51.02524 -6.63597 34124 ft 445 kts 266°
2026-05-07 15:37 51.02497 -6.67012 33961 ft 445 kts 266°
2026-05-07 15:37 51.02466 -6.71940 33689 ft 445 kts 266°
2026-05-07 15:38 51.02445 -6.76019 33456 ft 445 kts 266°
2026-05-07 15:38 51.02433 -6.78203 33334 ft 445 kts 266°
2026-05-07 15:38 51.02386 -6.83012 33067 ft 445 kts 266°
2026-05-07 15:38 51.02358 -6.87924 32797 ft 445 kts 266°
2026-05-07 15:39 51.02482 -6.92399 32530 ft 449 kts 277°
2026-05-07 15:39 51.03442 -6.97227 32264 ft 457 kts 293°
2026-05-07 15:39 51.05046 -7.01269 32015 ft 463 kts 308°
2026-05-07 15:39 51.07180 -7.04621 31810 ft 466 kts 315°
2026-05-07 15:40 51.09218 -7.07543 31596 ft 467 kts 315°
2026-05-07 15:40 51.11545 -7.10875 31351 ft 469 kts 315°
2026-05-07 15:40 51.13707 -7.14005 31134 ft 470 kts 315°
2026-05-07 15:40 51.16098 -7.17516 30882 ft 470 kts 315°
2026-05-07 15:41 51.18226 -7.20673 30233 ft 469 kts 314°
2026-05-07 15:41 51.20313 -7.23789 29331 ft 469 kts 314°
2026-05-07 15:41 51.22660 -7.27306 28337 ft 468 kts 314°
2026-05-07 15:41 51.25055 -7.30901 27403 ft 465 kts 314°
2026-05-07 15:42 51.26980 -7.33792 26847 ft 458 kts 314°
2026-05-07 15:42 51.29086 -7.36955 26214 ft 452 kts 314°
2026-05-07 15:42 51.31314 -7.40355 25515 ft 445 kts 312°
2026-05-07 15:42 51.33211 -7.43977 24899 ft 436 kts 302°
2026-05-07 15:43 51.33646 -7.45035 24771 ft 432 kts 300°
2026-05-07 15:44 51.34648 -7.47688 24383 ft 427 kts 298°
2026-05-07 15:44 51.36133 -7.51729 23730 ft 423 kts 298°
2026-05-07 15:44 51.37610 -7.55773 22979 ft 419 kts 298°
2026-05-07 15:44 51.39077 -7.59769 22269 ft 414 kts 298°
2026-05-07 15:45 51.40539 -7.63723 21599 ft 408 kts 298°
2026-05-07 15:45 51.41982 -7.67610 20926 ft 404 kts 298°
2026-05-07 15:45 51.43406 -7.71436 20267 ft 402 kts 298°
2026-05-07 15:45 51.44831 -7.75267 19613 ft 400 kts 298°
2026-05-07 15:46 51.47721 -7.83049 18285 ft 406 kts 298°
2026-05-07 15:46 51.49157 -7.86920 17526 ft 401 kts 298°
2026-05-07 15:46 51.50569 -7.90736 16848 ft 394 kts 299°
2026-05-07 15:47 51.51961 -7.94498 16188 ft 388 kts 299°
2026-05-07 15:47 51.53326 -7.98198 15537 ft 383 kts 299°
2026-05-07 15:47 51.54676 -8.01859 14892 ft 378 kts 298°
2026-05-07 15:47 51.56166 -8.05225 14254 ft 377 kts 313°
2026-05-07 15:48 51.58301 -8.07666 13681 ft 377 kts 330°
2026-05-07 15:48 51.60670 -8.09402 13012 ft 373 kts 334°
2026-05-07 15:48 51.63049 -8.11037 12351 ft 369 kts 334°
2026-05-07 15:48 51.65407 -8.12646 11729 ft 365 kts 335°
2026-05-07 15:49 51.67730 -8.14251 11106 ft 361 kts 334°
2026-05-07 15:49 51.69980 -8.15828 10849 ft 340 kts 334°
2026-05-07 15:49 51.72078 -8.17313 10687 ft 318 kts 334°
2026-05-07 15:49 51.74021 -8.18696 10551 ft 299 kts 333°
2026-05-07 15:50 51.75874 -8.20019 10417 ft 281 kts 333°
2026-05-07 15:50 51.77603 -8.21256 10316 ft 264 kts 332°
2026-05-07 15:50 51.79266 -8.22448 10215 ft 258 kts 332°
2026-05-07 15:50 51.80895 -8.23620 10120 ft 256 kts 333°
2026-05-07 15:51 51.82505 -8.24776 10011 ft 256 kts 332°
2026-05-07 15:51 51.84161 -8.25966 9744 ft 262 kts 332°
2026-05-07 15:51 51.85830 -8.27167 9430 ft 262 kts 333°
2026-05-07 15:51 51.87493 -8.28363 9142 ft 260 kts 333°
2026-05-07 15:52 51.89144 -8.29552 8867 ft 259 kts 333°
2026-05-07 15:52 51.90783 -8.30723 8586 ft 257 kts 335°
2026-05-07 15:52 51.92452 -8.31776 8312 ft 256 kts 336°
2026-05-07 15:52 51.94081 -8.32893 8039 ft 252 kts 328°
2026-05-07 15:53 51.95597 -8.34251 7786 ft 252 kts 332°
2026-05-07 15:53 51.97205 -8.35410 7518 ft 252 kts 334°
2026-05-07 15:53 51.98831 -8.36565 7232 ft 250 kts 334°
2026-05-07 15:53 52.00383 -8.37682 6947 ft 242 kts 334°
2026-05-07 15:54 52.01882 -8.38760 6731 ft 226 kts 334°
2026-05-07 15:54 52.03280 -8.39766 6496 ft 213 kts 334°
2026-05-07 15:54 52.04581 -8.40705 6275 ft 204 kts 333°
2026-05-07 15:54 52.05865 -8.41636 6102 ft 194 kts 333°
2026-05-07 15:55 52.06909 -8.42942 5976 ft 190 kts 300°
2026-05-07 15:55 52.07224 -8.44958 5804 ft 184 kts 266°
2026-05-07 15:55 52.06903 -8.46946 5607 ft 181 kts 251°
2026-05-07 15:55 52.06474 -8.48873 5365 ft 179 kts 251°
2026-05-07 15:56 52.06048 -8.50759 5136 ft 176 kts 250°
2026-05-07 15:56 52.05632 -8.52592 4932 ft 170 kts 250°
2026-05-07 15:56 52.05232 -8.54359 4733 ft 162 kts 250°
2026-05-07 15:56 52.04848 -8.56025 4535 ft 160 kts 247°
2026-05-07 15:57 52.04249 -8.57589 4362 ft 166 kts 230°
2026-05-07 15:57 52.03400 -8.58780 4172 ft 158 kts 213°
2026-05-07 15:57 52.02384 -8.59405 4045 ft 158 kts 186°
2026-05-07 15:57 52.01286 -8.59025 3921 ft 168 kts 170°
2026-05-07 15:58 52.00150 -8.58524 3707 ft 170 kts 168°
2026-05-07 15:58 51.99032 -8.57927 3492 ft 166 kts 166°
2026-05-07 15:58 51.97960 -8.57306 3251 ft 161 kts 165°
2026-05-07 15:58 51.96972 -8.56720 3028 ft 144 kts 166°
2026-05-07 15:59 51.96078 -8.56192 2847 ft 139 kts 167°
2026-05-07 15:59 51.95181 -8.55662 2672 ft 137 kts 167°
2026-05-07 15:59 51.94283 -8.55131 2485 ft 140 kts 167°
2026-05-07 15:59 51.93361 -8.54585 2284 ft 139 kts 166°
2026-05-07 16:00 51.92470 -8.54057 2089 ft 136 kts 166°
2026-05-07 16:00 51.91596 -8.53540 1897 ft 135 kts 166°
2026-05-07 16:00 51.90707 -8.53014 1703 ft 136 kts 165°
2026-05-07 16:00 51.89818 -8.52483 1555 ft 136 kts 166°
2026-05-07 16:01 51.88932 -8.51959 1319 ft 135 kts 167°
2026-05-07 16:01 51.88047 -8.51436 1163 ft 135 kts 166°
2026-05-07 16:01 51.87169 -8.50912 961 ft 132 kts 166°
2026-05-07 16:01 51.86329 -8.50418 785 ft 129 kts 163°
2026-05-07 16:02 51.85479 -8.49905 637 ft 131 kts 161°
2026-05-07 16:02 51.84637 -8.49409 506 ft 124 kts 162°
2026-05-07 16:02 51.83981 -8.49025 503 ft 70 kts 160°
2026-05-07 16:02 51.83727 -8.48875 503 ft 16 kts 160°
2026-05-07 16:03 51.83614 -8.48810 503 ft 19 kts 159°
2026-05-07 16:03 51.83471 -8.48724 503 ft 24 kts 160°
2026-05-07 16:03 51.83317 -8.48629 503 ft 22 kts 153°